Regional Weather Roundup
Issued by NWS Bismarck, ND

Home | Current Version | Previous Version | Text Only | Print | Product List | Glossary On
Versions: 1 2 3 4 5 6 7 8 9 10 11 12 13 14 15 16 17 18 19 20 21 22 23 24 25 26 27 28 29 30 31 32 33 34 35 36 37 38 39 40 41 42 43 44 45 46 47 48 49 50
000
ASUS43 KBIS 071210
RWRBIS

NWR BROADCAST TEXT
NATIONAL WEATHER SERVICE BISMARCK ND
600 AM CST SUN FEB 07 2016

NOTE: "FAIR" INDICATES FEW OR NO CLOUDS BELOW 12,000 FEET WITH NO
SIGNIFICANT WEATHER AND/OR OBSTRUCTIONS TO VISIBILITY.


CITY           SKY/WX    TMP DP  RH WIND       PRES   REMARKS
WILLISTON      FLURRIES  32  25  75 NW31G47   29.88R WCI  17
MINOT          FLURRIES  37  25  61 W31G45    29.68R
MINOT AFB      CLOUDY    34  29  82 NW37G47   29.66R WCI  20
BISMARCK       CLOUDY    39  21  48 W20G35    29.78S
DICKINSON      LGT SNOW  28  22  78 NW35G44   29.86R WCI  11
GARRISON         N/A     33  27  78 NW28G41   29.73R WCI  20
HETTINGER ARPT CLEAR     32  15  49 W41G61    29.92S WCI  16
JAMESTOWN      PTCLDY    34  23  64 W25G36    29.63F
BEACH          CLOUDY    32  16  51 NW40G53   29.98R WCI  16
CARRINGTON     PTSUNNY   34  28  80 W23G31    29.64S
HAZEN          LGT SNOW  32  27  80 W25G35    29.80S WCI  19
LINTON         FAIR      36  25  64 W26G33    29.80F
MANDAN         CLOUDY    36  23  60 W43G49    29.77S
OAKES          FAIR      36  27  69 W25G35    29.69R
RUGBY          MIX PCPN  32  30  93 NW28G35   29.60S WCI  18
STANLEY        LGT SNOW  30  30 100 NW22G30   29.76R VSB 3/4 WCI  17
TIOGA          LGT SNOW  28  28 100 NW33G53   29.84R WCI  12
WATFORD CITY   FLURRIES  32  25  74 NW25G39   29.86R WCI  19
$$

CITY           SKY/WX    TMP DP  RH WIND       PRES   REMARKS
GRAND FORKS    CLOUDY    37  29  72 W24G31    29.50S
GRAND FORKS AF CLOUDY    36  28  72 W26G35    29.50S
DEVILS LAKE    MOCLDY    33  27  78 W26G35    29.56S WCI  20
FARGO          CLOUDY    37  27  67 W25G33    29.58R
CAVALIER       CLOUDY    36  32  87 NW20G29   29.47R
GRAFTON        PTSUNNY   36  30  80 NW24G32   29.50S
GWINNER        FAIR      37  28  70 W18G29    29.69R
LANGDON        MIX PCPN  34  28  80 W31G38    29.48R WCI  20
ROLLA          MIX PCPN  32  28  86 NW30G40   29.54S WCI  18
WALHALLA       FAIR      36  36 100 NW21G31   29.48R
$$

CITY           SKY/WX    TMP DP  RH WIND       PRES   REMARKS
ABERDEEN       CLOUDY    38  24  57 W20G29    29.79R
MOBRIDGE       CLEAR     38  24  57 W23G35    29.82F
BUFFALO          N/A     33  15  47 W33G44    29.95S WCI  18
RAPID CITY     PTCLDY    36  12  37 NW24G40   30.07R
GLASGOW        CLEAR     31  19  61 NW33G44   30.11R WCI  15
SIDNEY         CLOUDY    34  19  55 NW25G38   29.96R
WOLF POINT     PTCLDY    34  20  56 NW35G45   30.05R WCI  19
GLENDIVE       PTCLDY    32  18  55 W38G51    30.02R WCI  16
MILES CITY     CLEAR     34  16  47 NW29G41   30.14R
BAKER          CLEAR     32  13  45 NW30G43   30.02R WCI  18
$$

CITY           SKY/WX    TMP DP  RH WIND       PRES   REMARKS
BILLINGS       CLOUDY    31  15  52 NW10      30.30R
GREAT FALLS    PTCLDY    22  15  75 SW12      30.35R WCI  10
REGINA         FLURRIES  25  19  80 NW30G43   29.90R WCI   8
ESTEVAN        FLURRIES  28  21  74 NW33G47   29.79  WCI  12
$$




USA.gov is the U.S. government's official web portal to all federal, state and local government web resources and services.